Weather History for Glencoe, MN

Change the Weather History Date:

Tuesday, November 20, 2012

  Actual Average (KHCD) Record (KHCD)
Temperature  
Mean Temperature 38 °F -  
Max Temperature 51 °F 37 °F 63 °F (1962)
Min Temperature 26 °F 22 °F -2 °F (2014)
Degree Days  
Heating Degree Days 26    
Moisture  
Dew Point 33 °F    
Average Humidity 78    
Maximum Humidity 99    
Minimum Humidity 53    
Precipitation  
Precipitation 0.00 in - - ()
Sea Level Pressure  
Sea Level Pressure 30.11 in    
Wind  
Wind Speed 3 mph (WSW)    
Max Wind Speed 7 mph    
Max Gust Speed -    
Visibility 8 miles    
Events Fog    
Averages and records for this station are not official NWS values.
T = Trace of Precipitation, MM = Missing Value Source: NWS Daily Summary

Daily Weather History Graph

Daily Weather History Graph

Search for Another Location

Airport:

Trip Planner

Search our weather history database for the weather conditions in past years. The results will help you decide how hot, cold, wet, or windy it might be!

Date:

Astronomy

Nov. 20, 2012 Rise Set
Actual Time 7:20 AM CST 4:43 PM CST
Civil Twilight 6:48 AM CST 5:15 PM CST
Nautical Twilight 6:12 AM CST 5:51 PM CST
Astronomical Twilight 5:37 AM CST 6:25 PM CST
Moon 12:46 PM CST (11/20) No Moon Set
Length of Visible Light 10h 26m
Length of Day
9h 22m
First Quarter, 51% of the Moon is Illuminated
Nov 20
First Quarter
Nov 28
Full
Dec 6
Last Quarter
Dec 13
New
Dec 19
First Quarter

Hourly Weather History & Observations

Time (CST) Temp. Windchill Dew Point Humidity Pressure Visibility Wind Dir Wind Speed Gust Speed Precip Events Conditions
12:15 AM 40.1 °F 36.9 °F 35.8 °F 85% 30.08 in 10.0 mi NW 4.6 mph - N/A   Scattered Clouds
12:36 AM 39.0 °F 36.8 °F 35.1 °F 86% 30.08 in 10.0 mi WNW 3.5 mph - N/A   Scattered Clouds
12:55 AM 38.5 °F 34.1 °F 34.5 °F 86% 30.09 in 10.0 mi WNW 5.8 mph - N/A   Clear
1:16 AM 37.4 °F 32.8 °F 34.0 °F 87% 30.09 in 7.0 mi NW 5.8 mph - N/A   Clear
1:35 AM 37.2 °F 31.9 °F 34.0 °F 88% 30.09 in 7.0 mi WNW 6.9 mph - N/A   Clear
1:56 AM 36.5 °F 31.0 °F 33.6 °F 89% 30.10 in 7.0 mi NW 6.9 mph - N/A   Clear
2:16 AM 35.6 °F 30.7 °F 32.9 °F 90% 30.11 in 7.0 mi NW 5.8 mph - N/A   Clear
2:35 AM 34.9 °F 30.8 °F 32.5 °F 91% 30.11 in 7.0 mi NW 4.6 mph - N/A   Clear
2:56 AM 34.0 °F 31.0 °F 32.0 °F 92% 30.11 in 5.0 mi NNW 3.5 mph - N/A   Clear
3:16 AM 34.0 °F 28.8 °F 32.0 °F 92% 30.12 in 5.0 mi NW 5.8 mph - N/A   Clear
3:36 AM 34.2 °F 29.0 °F 32.0 °F 92% 30.13 in 7.0 mi NW 5.8 mph - N/A   Clear
3:56 AM 33.1 °F 27.7 °F 31.8 °F 95% 30.13 in 5.0 mi NW 5.8 mph - N/A   Clear
4:15 AM 33.1 °F 27.7 °F 31.8 °F 95% 30.14 in 5.0 mi NW 5.8 mph - N/A   Clear
4:36 AM 33.1 °F 30.0 °F 32.0 °F 96% 30.13 in 5.0 mi North 3.5 mph - N/A   Clear
4:55 AM 32.0 °F 28.7 °F 30.9 °F 96% 30.14 in 4.0 mi NNW 3.5 mph - N/A   Clear
5:15 AM 30.7 °F 27.3 °F 29.3 °F 94% 30.14 in 4.0 mi WNW 3.5 mph - N/A   Clear
5:36 AM 30.7 °F 27.3 °F 29.8 °F 96% 30.14 in 3.0 mi NW 3.5 mph - N/A   Clear
5:55 AM 29.3 °F 25.6 °F 28.4 °F 96% 30.14 in 3.0 mi WNW 3.5 mph - N/A   Clear
6:16 AM 29.8 °F 26.3 °F 28.9 °F 96% 30.15 in 2.5 mi WNW 3.5 mph - N/A   Clear
6:35 AM 30.2 °F - 29.3 °F 96% 30.15 in 2.5 mi Calm Calm - N/A   Clear
6:56 AM 27.3 °F 23.4 °F 26.4 °F 96% 30.15 in 1.2 mi NW 3.5 mph - N/A   Mist
7:16 AM 27.7 °F - 27.1 °F 98% 30.15 in 0.8 mi Calm Calm - N/A   Mist
7:36 AM 26.4 °F - 25.7 °F 97% 30.15 in 0.2 mi Calm Calm - N/A Fog Light Freezing Fog
7:55 AM 27.0 °F 23.0 °F 26.2 °F 97% 30.16 in 0.2 mi NW 3.5 mph - N/A Fog Light Freezing Fog
8:16 AM 28.8 °F 25.0 °F 28.2 °F 98% 30.16 in 0.2 mi West 3.5 mph - N/A Fog Light Freezing Fog
8:35 AM 29.7 °F - 29.1 °F 98% 30.16 in 1.5 mi Calm Calm - N/A   Mist
8:56 AM 31.1 °F - 30.7 °F 99% 30.17 in 2.5 mi Calm Calm - N/A   Clear
9:15 AM 32.2 °F 28.9 °F 32.0 °F 99% 30.17 in 3.0 mi WSW 3.5 mph - N/A   Clear
9:35 AM 33.3 °F - 32.7 °F 98% 30.17 in 4.0 mi Calm Calm - N/A   Clear
9:55 AM 36.0 °F - 34.9 °F 96% 30.17 in 7.0 mi Calm Calm - N/A   Clear
10:16 AM 37.8 °F - 34.5 °F 88% 30.18 in 7.0 mi Calm Calm - N/A   Clear
10:35 AM 39.4 °F - 34.9 °F 84% 30.17 in 7.0 mi Calm Calm - N/A   Clear
10:56 AM 41.7 °F - 35.2 °F 78% 30.17 in 10.0 mi Calm Calm - N/A   Clear
11:15 AM 43.2 °F - 36.0 °F 76% 30.16 in 10.0 mi Calm Calm - N/A   Clear
11:35 AM 44.8 °F - 36.1 °F 72% 30.15 in 10.0 mi Calm Calm - N/A   Clear
11:56 AM 46.4 °F - 36.5 °F 68% 30.15 in 10.0 mi Calm Calm - N/A   Clear
12:15 PM 47.3 °F - 36.5 °F 66% 30.14 in 10.0 mi Calm Calm - N/A   Clear
12:36 PM 48.2 °F - 36.5 °F 64% 30.13 in 10.0 mi Calm Calm - N/A   Clear
12:56 PM 49.1 °F - 36.0 °F 61% 30.12 in 10.0 mi SW 3.5 mph - N/A   Clear
1:16 PM 50.0 °F - 35.8 °F 58% 30.12 in 10.0 mi SSW 3.5 mph - N/A   Clear
1:35 PM 50.0 °F - 35.4 °F 57% 30.12 in 10.0 mi Calm Calm - N/A   Clear
1:56 PM 50.7 °F - 35.1 °F 55% 30.12 in 10.0 mi Calm Calm - N/A   Clear
2:15 PM 50.9 °F - 34.5 °F 54% 30.12 in 10.0 mi SW 3.5 mph - N/A   Clear
2:36 PM 51.3 °F - 34.7 °F 53% 30.11 in 10.0 mi Calm Calm - N/A   Clear
2:56 PM 50.0 °F - 34.2 °F 55% 30.11 in 10.0 mi Calm Calm - N/A   Clear
3:15 PM 50.9 °F - 34.5 °F 54% 30.10 in 10.0 mi South 3.5 mph - N/A   Clear
3:36 PM 50.2 °F - 34.7 °F 55% 30.10 in 10.0 mi SSE 3.5 mph - N/A   Clear
3:56 PM 50.0 °F - 35.2 °F 57% 30.10 in 10.0 mi Calm Calm - N/A   Clear
4:15 PM 48.6 °F - 34.2 °F 58% 30.09 in 10.0 mi SE 5.8 mph - N/A   Clear
4:36 PM 46.9 °F - 34.2 °F 61% 30.09 in 10.0 mi Calm Calm - N/A   Clear
4:56 PM 46.4 °F 43.5 °F 34.0 °F 62% 30.09 in 10.0 mi SE 5.8 mph - N/A   Clear
5:15 PM 42.8 °F 41.1 °F 32.7 °F 68% 30.09 in 10.0 mi South 3.5 mph - N/A   Clear
5:36 PM 43.5 °F - 33.1 °F 67% 30.09 in 10.0 mi Calm Calm - N/A   Clear
5:56 PM 41.5 °F 38.6 °F 32.2 °F 69% 30.09 in 10.0 mi SE 4.6 mph - N/A   Clear
6:15 PM 41.5 °F 37.8 °F 32.4 °F 70% 30.09 in 10.0 mi SE 5.8 mph - N/A   Clear
6:36 PM 38.7 °F 34.3 °F 31.1 °F 74% 30.08 in 10.0 mi ESE 5.8 mph - N/A   Clear
6:55 PM 40.3 °F 36.3 °F 32.0 °F 72% 30.08 in 10.0 mi SE 5.8 mph - N/A   Clear
7:16 PM 41.4 °F 37.6 °F 32.0 °F 69% 30.07 in 10.0 mi SE 5.8 mph - N/A   Clear
7:35 PM 41.0 °F - 32.2 °F 71% 30.07 in 10.0 mi Calm Calm - N/A   Clear
7:56 PM 38.7 °F - 31.3 °F 75% 30.06 in 10.0 mi Calm Calm - N/A   Clear
8:15 PM 41.2 °F 39.2 °F 32.2 °F 70% 30.05 in 10.0 mi SSE 3.5 mph - N/A   Clear
8:36 PM 41.2 °F 39.2 °F 32.0 °F 70% 30.05 in 10.0 mi SE 3.5 mph - N/A   Clear
8:56 PM 40.8 °F 38.8 °F 32.0 °F 71% 30.04 in 10.0 mi SSE 3.5 mph - N/A   Clear
9:15 PM 41.0 °F - 32.0 °F 70% 30.04 in 10.0 mi Calm Calm - N/A   Clear
9:36 PM 41.7 °F - 32.0 °F 68% 30.05 in 10.0 mi Calm Calm - N/A   Clear
9:56 PM 42.8 °F - 32.0 °F 66% 30.04 in 10.0 mi Calm Calm - N/A   Clear
10:16 PM 41.7 °F - 32.0 °F 68% 30.04 in 10.0 mi Calm Calm - N/A   Clear
10:35 PM 41.5 °F - 31.8 °F 68% 30.03 in 10.0 mi Calm Calm - N/A   Clear
10:56 PM 41.9 °F 39.0 °F 31.6 °F 67% 30.02 in 10.0 mi SSE 4.6 mph - N/A   Clear
11:15 PM 42.4 °F 40.7 °F 31.5 °F 65% 30.02 in 10.0 mi SSE 3.5 mph - N/A   Clear
11:36 PM 43.0 °F 38.8 °F 31.3 °F 63% 30.01 in 10.0 mi SSE 6.9 mph - N/A   Clear
11:55 PM 44.1 °F 40.8 °F 31.5 °F 61% 30.00 in 10.0 mi SSE 5.8 mph - N/A   Clear